This demonstration page uses our WeatherBlox Daily Observations layout. Learn more.

Left ArrowRight Arrow

40.92501, -98.34201

Hourly Observations for September 5, 2022

Temp ( °F °C ) Dew Point ( °F °C ) Humidity (%) Winds ( mph kmh ) Pressure ( in mb ) Visibility ( mi km ) Precip ( " mm )
12:53 am 00:53 Clear 62 16.7 55 12.8 78 78 SSE 6 9 30.03 1017 10 16 0.00 0.00
1:53 am 01:53 Clear 63 17.2 56 13.3 78 78 SE 7 11 30.01 1016 10 16 0.00 0.00
2:53 am 02:53 Clear 63 17.2 59 15 87 87 SE 10 17 30.01 1016 10 16 0.00 0.00
2:55 am 02:55 Mostly Clear 88 31 41 5 19 19 W 7 11 29.72 1007 7 11 0.00 0.00
3:53 am 03:53 Clear 63 17.2 60 15.6 90 90 SSE 9 15 30.01 1016 10 16 0.00 0.00
4:51 am 04:51 Mostly Clear 63 17 61 16 94 94 S 7 11 30.00 1016 7 11 0.00 0.00
4:53 am 04:53 Mostly Clear 62 16.7 60 15.6 93 93 S 7 11 30.01 1016 7 11 0.00 0.00
5:06 am 05:06 Mostly Cloudy with Mist and Fog 62 16.7 60 15.6 93 93 SSE 8 13 30.00 1016 6 10 0.00 0.00
5:17 am 05:17 Cloudy with Mist and Fog 63 17.2 61 16.1 93 93 S 10 17 30.00 1016 2 2 0.00 0.00
5:27 am 05:27 Mostly Clear with Fog 63 17.2 61 16.1 93 93 S 12 19 30.01 1016 1 1 0.00 0.00
5:32 am 05:32 Mostly Clear with Fog 63 17.2 61 16.1 93 93 S 10 17 30.01 1016 0 0 0.00 0.00
5:53 am 05:53 Mostly Clear with Fog 63 17.2 62 16.7 97 97 S 8 13 30.02 1017 0 0 0.00 0.00
5:55 am 05:55 Clear 86 30 46 8 25 25 VRB 3 6 29.72 1006 7 11 0.00 0.00
6:53 am 06:53 Mostly Clear with Fog 63 17.2 62 16.7 97 97 S 10 17 30.04 1017 0 0 0.00 0.00
7:53 am 07:53 Partly Cloudy with Fog 64 17.8 63 17.2 96 96 S 7 11 30.06 1018 0 0 0.00 0.00
8:33 am 08:33 Partly Cloudy with Fog 64 17.8 63 17.2 96 96 S 9 15 30.03 1017 0 0 0.00 0.00
8:42 am 08:42 Cloudy with Fog 64 17.8 63 17.2 96 96 S 10 17 30.03 1017 1 1 0.00 0.00
8:53 am 08:53 Cloudy with Fog 65 18.3 63 17.2 93 93 S 9 15 30.07 1018 1 1 0.00 0.00
9:16 am 09:16 Cloudy with Mist and Fog 65 18.3 63 17.2 93 93 S 10 17 30.04 1017 1 2 0.00 0.00
9:31 am 09:31 Cloudy with Mist and Fog 66 18.9 64 17.8 93 93 S 7 11 30.04 1017 3 4 0.00 0.00
9:53 am 09:53 Cloudy with Mist and Fog 66 18.9 63 17.2 90 90 S 8 13 30.07 1018 4 6 0.00 0.00
10:22 am 10:22 Cloudy with Haze 70 21.1 63 17.2 78 78 S 12 19 30.02 1017 6 10 0.00 0.00
10:53 am 10:53 Partly Cloudy 73 22.8 63 17.2 71 71 S 10 17 30.07 1018 7 11 0.00 0.00
11:53 am 11:53 Mostly Sunny 78 25.6 63 17.2 60 60 SSE 9 15 30.05 1018 10 16 0.00 0.00
12:53 pm 12:53 Sunny 81 27.2 61 16.1 51 51 SSE 13 20 30.03 1017 10 16 0.00 0.00
1:53 pm 13:53 Sunny 83 28.3 60 15.6 46 46 SSE 10 17 30.02 1017 10 16 0.00 0.00
2:53 pm 14:53 Sunny 85 29.4 59 15 42 42 S 12 19 30.00 1016 10 16 0.00 0.00
3:53 pm 15:53 Sunny 87 30.6 57 13.9 36 36 S 12 19 29.98 1015 10 16 0.00 0.00
4:53 pm 16:53 Sunny 86 30 56 13.3 36 36 S 12 19 29.97 1015 10 16 0.00 0.00
5:53 pm 17:53 Sunny 85 29.4 60 15.6 43 43 SE 12 19 29.97 1015 10 16 0.00 0.00
6:53 pm 18:53 Sunny 83 28.3 61 16.1 48 48 SE 10 17 29.97 1015 10 16 0.00 0.00
7:53 pm 19:53 Sunny 78 25.6 62 16.7 58 58 SE 6 9 29.97 1015 10 16 0.00 0.00
8:53 pm 20:53 Clear 75 23.9 62 16.7 64 64 SE 7 11 29.98 1015 10 16 0.00 0.00
9:53 pm 21:53 Clear 74 23.3 61 16.1 64 64 SE 9 15 29.99 1016 10 16 0.00 0.00
10:53 pm 22:53 Clear 73 22.8 60 15.6 64 64 SSE 10 17 29.98 1015 10 16 0.00 0.00
10:55 pm 22:55 Clear 91 33 30 -1 11 11 VRB 3 6 29.74 1007 7 11 0.00 0.00
11:53 pm 23:53 Clear 73 22.8 60 15.6 64 64 S 13 20 29.98 1015 10 16 0.00 0.00

Powered by AerisWeather